Regional Weather Roundup
Issued by NWS State College, PA

Home | Current Version | Previous Version | Text Only | Print | Product List | Glossary Off
Versions: 1 2 3 4 5 6 7 8 9 10 11 12 13 14 15 16 17 18 19 20 21 22 23 24 25 26 27 28 29 30 31 32 33 34 35 36 37 38 39 40 41 42 43 44 45 46 47 48 49 50

000
ASUS41 KCTP 271810
RWRCTP

REGIONAL WEATHER ROUNDUP
NATIONAL WEATHER SERVICE STATE COLLEGE PA
200 PM EDT SAT AUG 27 2016

Note: "fair" indicates few or no clouds below 12,000 feet with no
significant weather and/or obstructions to visibility.

* = STATION THAT DOES NOT REPORT PRECIPITATION /E.G. RAIN...SNOW...ETC/
    THUNDER OR FOG.

PAZ002>004-007>009-013>016-020>023-029>032-271900-
WESTERN PENNSYLVANIA

CITY           SKY/WX    TMP DP  RH WIND       PRES   REMARKS
ERIE           SUNNY     85  68  56 N6        30.15F
MEADVILLE      SUNNY     81  60  48 VRB5      30.19F
FRANKLIN*        N/A     81  63  54 S9        30.21F
NEW CASTLE     FAIR      87  62  43 E7        30.18F HAZE
BEAVER COUNTY  NOT AVBL
BUTLER*        NOT AVBL
PITTSBURGH INT PTSUNNY   86  60  41 SW8       30.17F
PITTSBURGH     SUNNY     86  65  49 SE9       30.17S
INDIANA*       SUNNY     84  68  58 S7        30.22S
LATROBE        PTSUNNY   84  68  58 VRB7      30.19
WASHINGTON CO* SUNNY     88  68  51 E5        30.18S
$$

PAZ004>006-010>012-017>019-024>028-033>037-041-042-045-046-049>053-271900-
CENTRAL PENNSYLVANIA

CITY           SKY/WX    TMP DP  RH WIND       PRES   REMARKS
BRADFORD       SUNNY     80  57  45 S5        30.24F
DUBOIS         CLOUDY    80  63  55 SE7       30.22F
CLEARFIELD     CLOUDY    83  65  54 VRB6      30.23S
JOHNSTOWN      MOSUNNY   80  65  59 S9        30.25S
ALTOONA        CLOUDY    84  67  56 SE7       30.22F
STATE COLLEGE  SUNNY     81  66  61 S5        30.22F
WILLIAMSPORT   MOSUNNY   84  63  49 VRB5      30.18F
SELINSGROVE    CLOUDY    85  69  58 CALM      30.19F
FT INDIANTOWN  LGT RAIN  86  61  42 SE3       30.19S
CAPITAL CITY   CLOUDY    87  66  49 E7        30.18F
HARRISBURG     CLOUDY    87  68  52 S3        30.18S
YORK           MOSUNNY   88  66  48 E6        30.19S
$$

PAZ038>040-043-044-047-048-054-055-060>062-067>071-271900-
EASTERN PENNSYLVANIA

CITY           SKY/WX    TMP DP  RH WIND       PRES   REMARKS
SCRANTON       MOSUNNY   85  62  46 CALM      30.20F
MOUNT POCONO   MOSUNNY   76  60  57 VRB3      30.27S
ALLENTOWN      CLOUDY    88  60  38 VRB5      30.19S
QUAKERTOWN*    PTCLDY    88  59  37 CALM      30.20S
READING        CLOUDY    86  62  44 N5        30.18S
LANCASTER      CLOUDY    87  65  47 E3        30.19S
COATESVILLE    PTCLDY    86  61  42 CALM      30.21S
POTTSTOWN      MOSUNNY   87  58  37 VRB3      30.19F
BLUE BELL      SUNNY     88  63  42 CALM      30.17F
DOYLESTOWN     SUNNY     87  65  47 VRB5      30.18F
WILLOW GROVE   NOT AVBL
NORTH PHILA    SUNNY     90  61  37 NE8       30.19S
PHILADELPHIA   MOSUNNY   91  60  35 E8        30.16F
$$




USA.gov is the U.S. government's official web portal to all federal, state and local government web resources and services.